Location: Unspecified
(29.0276°N, 0.0000°E)
Time: 06:40:52
(UTC+00:00)

Meteor 1-5 Rocket - Visible Passes

Search period start: 04 April 2026 00:00
Search period end: 14 April 2026 00:00
Orbit: 787 x 914 km, 81.2° (Epoch: 29 March)

Date Brightness Start Highest point End Pass type
(mag) Time Alt. Az. Time Alt. Az. Time Alt. Az.
4 Apr 6.6 02:17:48 10° NNE 02:19:51 16° NE 02:19:51 16° NE visible
4 Apr 5.4 03:59:29 10° NNW 04:01:47 23° NW 04:01:47 23° NW visible
5 Apr 6.8 02:05:58 10° NE 02:07:04 13° NE 02:07:04 13° NE visible
5 Apr 5.7 03:47:17 10° NNW 03:49:01 20° NW 03:49:01 20° NW visible
6 Apr 7.0 01:54:11 10° NE 01:54:27 11° NE 01:54:27 11° NE visible
6 Apr 6.0 03:35:06 10° NNW 03:36:24 17° NNW 03:36:24 17° NNW visible
7 Apr 6.2 03:22:55 10° NNW 03:23:53 15° NNW 03:23:53 15° NNW visible
8 Apr 6.4 03:10:46 10° NNW 03:11:27 14° NNW 03:11:27 14° NNW visible
9 Apr 6.5 02:58:37 10° NNW 02:59:03 12° NNW 02:59:03 12° NNW visible
10 Apr 6.6 02:46:28 10° NNW 02:46:44 11° NNW 02:46:44 11° NNW visible
11 Apr 6.7 02:34:21 10° N 02:34:27 11° N 02:34:27 11° N visible
